Regional Weather Roundup
Issued by NWS

Home | Current Version | Previous Version | Graphics & Text | Print | Product List | Glossary On
Versions: 1 2 3 4 5 6 7 8 9 10 11 12 13 14 15 16 17 18 19 20 21 22 23 24 25 26 27 28 29 30 31 32 33 34 35 36 37 38 39 40 41 42 43 44 45 46 47 48 49 50
000
ASUS43 KIND 310409
RWRIN

WEATHER ROUNDUP FOR INDIANA
NATIONAL WEATHER SERVICE INDIANAPOLIS IN
1200 AM EDT MON AUG 31 2015

NOTE: "FAIR" INDICATES FEW OR NO CLOUDS BELOW 12,000 FEET WITH NO
SIGNIFICANT WEATHER AND/OR OBSTRUCTIONS TO VISIBILITY.

* - STATION DOES NOT REPORT WEATHER SUCH AS PRECIPITATION OR FOG.

+ - STATION NOT QUALITY CONTROLLED BY THE NATIONAL WEATHER SERVICE.
    USE DATA WITH CAUTION...ESPECIALLY DEWPOINT AND RELATIVE
    HUMIDITY OBSERVATIONS.

INZ001>003-010>013-019-020-310500-
NORTHWEST INDIANA

CITY           SKY/WX    TMP DP  RH WIND       PRES   REMARKS
GARY /AIRPORT/ FOG       62  59  93 CALM      30.04F VSB 1/4
KNOX *+          N/A     63  63 100 CALM      30.04S VSB<1/4
LA PORTE +     FOG      N/A N/A N/A CALM      30.06S VSB 1/2
MICHIGAN CITY+ FOG       61  61 100 CALM      30.05S VSB 1/4
MONTICELLO +   CLEAR     70  70 100 CALM      30.04S FOG
RENSSELAER +   MOCLDY    68  68 100 CALM      30.04F FOG
VALPARAISO     FOG       63  62  97 NE3       30.05F VSB 1/4

$$

LMZ046-743>745-310500-
SOUTHERN LAKE MICHIGAN

STATION/POSITION TIME  TEMP    WIND        PRES    WAVE
                       AIR SEA DIR/SP/G            HT
                 (UTC) (F)     (DEG/KT/KT) (MB)    (FT)
BURNS HARBOR     0300   69      80/  4/  7 1017.9S
MICHIGAN CITY    0300   67     100/  3/  4   N/A
5NW MICH CITY    0400   69 71  120/  4/  6   N/A     1

$$

INZ004-005-014>016-021>024-310500-
NORTH CENTRAL INDIANA

CITY           SKY/WX    TMP DP  RH WIND       PRES   REMARKS
GOSHEN         FOG       65  64  97 CALM      30.06S VSB 1/4
LOGANSPORT +     N/A     68  64  88 CALM      30.06S FOG
PERU/GRISSOM   CLEAR     70  68  91 CALM      30.05S
ROCHESTER +    CLEAR     70  70 100 CALM      30.06S FOG
SOUTH BEND     CLEAR     62  60  93 CALM      30.06S
WARSAW +       FOG       66  66 100 CALM      30.06S VSB 3/4

$$

INZ006>009-017-018-025>027-310500-
NORTHEAST INDIANA

CITY           SKY/WX    TMP DP  RH WIND       PRES   REMARKS
ANGOLA *+      CLOUDY    66  66 100 CALM      30.06S VSB 1/4
AUBURN +         N/A     68  66  94 CALM      30.07S FOG
FORT WAYNE     CLEAR     68  66  93 CALM      30.06S
HUNTINGTON +   CLEAR     68  64  87 CALM      30.05S

$$

INZ028-029-035-036-043>045-051>053-310500-
WEST CENTRAL INDIANA

CITY           SKY/WX    TMP DP  RH WIND       PRES   REMARKS
CRAWFORDSVL +  CLEAR     67  64  90 CALM      30.06S
GREENCASTLE +  PTCLDY    68  63  83 CALM      30.07S
LAFAYETTE      PTCLDY    70  67  90 CALM      30.04S
TERRE HAUTE    CLEAR     68  66  93 CALM      30.05S

$$

INZ030>032-037>040-046>048-054>057-064-065-310500-
CENTRAL INDIANA

CITY           SKY/WX    TMP DP  RH WIND       PRES   REMARKS
FRANKFORT +    PTCLDY   N/A N/A N/A CALM      30.07S
GREENWOOD *+   PTCLDY    72  64  78 S3        30.08S
INDIANAPOLIS   PTCLDY    72  66  81 SW6       30.05S
-EAGLE CREEK   CLEAR     73  67  81 CALM      30.05F
KOKOMO *+      CLEAR     68  63  83 CALM      30.06S
MARION +       CLEAR     66  60  80 CALM      30.07S
MT COMFORT *+  PTCLDY    72  66  83 S6        30.07S
SHELBYVILLE    CLOUDY    74  66  76 S6        30.07S

$$

INZ033-034-041-042-049-050-058-059-310500-
EAST CENTRAL INDIANA

CITY           SKY/WX    TMP DP  RH WIND       PRES   REMARKS
MUNCIE         PTCLDY    71  65  81 S5        30.07S

$$

INZ060-061-067>069-081>083-085>088-310500-
SOUTHWEST INDIANA

CITY           SKY/WX    TMP DP  RH WIND       PRES   REMARKS
EVANSVILLE     MOCLDY    73  68  84 S3        30.06F
HUNTINGBURG *+ PTCLDY    72  66  83 S5        30.07S
WASHINGTON +   CLEAR     70  66  88 S3        30.05S

$$

INZ062-063-066-070>080-084-089>092-310500-
SOUTH CENTRAL AND SOUTHEAST INDIANA

CITY           SKY/WX    TMP DP  RH WIND       PRES   REMARKS
BLOOMINGTON    MOCLDY    70  68  93 CALM      30.07S
MADISON *+     PTCLDY    70  64  83 CALM      30.10S
NORTH VERNON + PTCLDY    72  72 100 CALM      30.09S
SEYMOUR +      MOCLDY    70  66  88 CALM      30.06F

$$




USA.gov is the U.S. government's official web portal to all federal, state and local government web resources and services.